Tiempo atmosférico en la estación meteorológica de Villamayor de los Montes, Burgos (882 m.)



Fecha
DESCASC
Temp. máxima en grados centígrados (hora)
DESCASC
Temp. mínima en grados centígrados (hora)
DESCASC
Temp. media en grados centígrados
DESCASC
Racha de viento máxima en m/sg (hora)
DESCASC
Velocidad máxima media en intervalos de 10 minutos(hora)
DESCASC
Precipitaciones diarias en mm
DESCASC
Precipitaciones de 00:00 a 06:00 en mm
DESCASC
Precipitaciones de 06:00 a 12:00 en mm
DESCASC
Precipitaciones de 12:00 a 18:00 en mm
DESCASC
Precipitaciones de 18:00 a 24:00 en mm
DESCASC
16-01-2020 12.3 (15:30) 5.9 (06:40) 9.1 13.33 (21:20) 7.78 (20:10) 0.6 0 0 0 0.6
15-01-2020 8.8 (15:20) 3.4 (05:40) 6.1 11.94 (14:20) 8.33 (14:20) 0.4 0 0.4 0 0
14-01-2020 7.8 (14:40) -0.1 (00:00) 3.9 10.56 (16:10) 7.22 (15:50) 0 0 0 0 0
13-01-2020 5.2 (16:40) -4.2 (07:00) 0.5 8.06 (14:00) 5.28 (14:40) 0 0 0 0 0
12-01-2020 1 (16:10) -4.4 (-00:0) -1.7 3.33 (13:20) 1.67 (17:00) 0 0 0 0 0
11-01-2020 5.2 (16:20) -3.8 (-00:0) 0.7 6.11 (03:20) 4.17 (03:20) 0 0 0 0 0
10-01-2020 6.5 (15:10) -0.2 (00:00) 3.1 9.72 (16:10) 6.11 (23:30) 0.2 0 0 0.2 0
09-01-2020 8.2 (16:30) 0.5 (00:00) 4.3 9.44 (14:30) 6.39 (14:30) 0 0 0 0 0
08-01-2020 11.3 (16:10) -3.7 (-00:0) 3.8 3.33 (13:30) 1.94 (17:30) 0 0 0 0 0
07-01-2020 5.9 (16:20) -5 (-00:0) 0.5 3.33 (13:20) 1.67 (13:20) 0 0 0 0 0
06-01-2020 5.4 (14:10) -4.4 (-00:0) 0.5 3.89 (13:00) 2.78 (13:00) 0 0 0 0 0
05-01-2020 5.9 (16:50) -3 (-00:0) 1.5 3.06 (01:30) 2.22 (03:50) 0 0 0 0 0
04-01-2020 7.5 (14:10) 1.2 (00:00) 4.4 16.94 (16:10) 8.61 (14:20) 0 0 0 0 0
03-01-2020 5 (16:10) -0.3 (00:00) 2.3 4.72 (06:30) 3.06 (06:20) 0 0 0 0 0
02-01-2020 10.2 (15:20) -3.9 (-00:0) 3.1 6.11 (11:10) 4.44 (11:10) 0 0 0 0 0
01-01-2020 -- (--) -- (--) -- -- (--) -- (--) -- 0 0 -- 0
31-12-2019 8 (16:40) -2.9 (-00:0) 2.5 2.5 (06:10) 1.67 (06:00) 0 0 0 0 0
30-12-2019 -- (--) -- (--) -- -- (--) -- (--) -- 0 0 0 --
29-12-2019 10.6 (16:20) -2.7 (-00:0) 4 1.94 (12:50) 1.39 (04:40) 0 0 0 0 0
28-12-2019 9.8 (16:40) -3.6 (-00:0) 3.1 3.33 (11:20) 1.94 (02:30) 0 0 0 0 0
27-12-2019 7.8 (16:10) -3.3 (-00:0) 2.3 2.78 (17:00) 1.39 (17:10) 0 0 0 0 0
26-12-2019 8.9 (00:00) 2.4 (00:00) 5.6 5.56 (04:10) 3.61 (01:20) 0 0 0 0 0
25-12-2019 15.2 (16:10) 2.8 (00:00) 9 5.83 (23:40) 3.61 (23:40) 0 0 0 0 0
24-12-2019 11.8 (16:30) 5.8 (00:00) 8.8 6.11 (10:00) 4.44 (10:00) 0 0 0 0 0
23-12-2019 8.6 (15:50) 2.5 (00:00) 5.6 7.78 (12:10) 5.56 (11:50) 0 0 0 0 0
22-12-2019 11 (15:10) 4.1 (00:00) 7.5 17.78 (01:50) 9.72 (01:20) 0.4 0 0 0.4 0
21-12-2019 14.5 (13:10) 6.7 (00:00) 10.6 22.5 (16:40) 12.5 (16:40) 1.8 0 0.2 1 0.6

Gráficas

Temp. máximas Temp. mínimas Temp. medias Precipitaciones Rachas de viento máximas Velocidades máximas media en intervalos de 10 minutos

Datos horarios

Fecha y hora oficial Temperatura (ºC) Velocidad del viento (km/h) Dirección del viento Racha (km/h) Dirección de racha Precipitación (mm) Presión (hPa) Tendencia (hPa) Humedad (%)
2020-01-19 23:00:00 0.6 33 Nordeste 58 Norte 0 -- -- 65
2020-01-19 22:00:00 0.7 33 Nordeste 64 Norte 0 -- -- 66
2020-01-19 21:00:00 0.7 45 Nordeste 69 Nordeste 0 -- -- 67
2020-01-19 20:00:00 0.4 47 Norte 66 Nordeste 0 -- -- 72
2020-01-19 19:00:00 0.7 38 Norte 66 Norte 0 -- -- 70
2020-01-19 18:00:00 1.4 41 Norte 73 Norte 0 -- -- 66
2020-01-19 17:00:00 2.5 46 Norte 75 Norte 0 -- -- 60
2020-01-19 16:00:00 3.4 46 Norte 75 Nordeste 0 -- -- 60
2020-01-19 15:00:00 4 36 Nordeste 75 Nordeste 0 -- -- 63
2020-01-19 14:00:00 4 40 Norte 69 Norte 0 -- -- 67
2020-01-19 13:00:00 3.7 44 Nordeste 73 Norte 0 -- -- 66
2020-01-19 12:00:00 3.5 49 Norte 79 Norte 0 -- -- 71
2020-01-19 11:00:00 3 47 Norte 71 Norte 0 -- -- 76
2020-01-19 10:00:00 2.2 39 Norte 60 Norte 0 -- -- 83
2020-01-19 09:00:00 2.4 31 Norte 55 Norte 0 -- -- 90
2020-01-19 08:00:00 2.5 36 Norte 62 Norte 0 -- -- 89
2020-01-19 07:00:00 3.1 25 Norte 42 Norte 0 -- -- 92
2020-01-19 06:00:00 2.6 17 Noroeste 29 Norte 0 -- -- 96
2020-01-19 05:00:00 2.2 5 Norte 15 Norte 0 -- -- 96
2020-01-19 04:00:00 2.2 7 Norte 16 Norte 0 -- -- 96
2020-01-19 03:00:00 2.2 7 Noroeste 10 Noroeste 0 -- -- 95
2020-01-19 02:00:00 2.5 2 Norte 8 Noroeste 0 -- -- 94
2020-01-19 01:00:00 2.7 3 Oeste 5 Oeste 0 -- -- 93
2020-01-19 00:00:00 3 3 Oeste 6 Nordeste 0 -- -- 91
2020-01-18 23:00:00 3 2 Noroeste 8 Norte 0 -- -- 89
2020-01-18 22:00:00 3.1 4 Norte 20 Nordeste 0 -- -- 90
2020-01-18 21:00:00 3.5 9 Nordeste 22 Nordeste 0 -- -- 89
2020-01-18 20:00:00 4.2 15 Nordeste 33 Nordeste 0 -- -- 88
2020-01-18 19:00:00 5.7 19 Oeste 95 Sudoeste 1.4 -- -- 88
2020-01-18 18:00:00 9 14 Sudoeste 36 Oeste 0.8 -- -- 89
2020-01-18 17:00:00 8.5 17 Sur 40 Sur 0.2 -- -- 95
2020-01-18 16:00:00 7.8 23 Sur 40 Sur 0 -- -- 94
2020-01-18 15:00:00 7.3 28 Sur 44 Sur 0 -- -- 93
2020-01-18 14:00:00 6.1 23 Sur 36 Sur 0 -- -- 92
2020-01-18 13:00:00 6 25 Sur 36 Sur 0 -- -- 85
2020-01-18 12:00:00 5.5 23 Sur 29 Sur 0 -- -- 85
2020-01-18 11:00:00 4.6 17 Sur 25 Sur 0 -- -- 84
2020-01-18 10:00:00 4.1 17 Sur 23 Sur 0 -- -- 82
2020-01-18 09:00:00 3.5 18 Sur 24 Sur 0 -- -- 83
2020-01-18 08:00:00 3.4 17 Sur 33 Sudeste 0 -- -- 84
2020-01-18 07:00:00 3.3 18 Sur 25 Sudeste 0 -- -- 84
2020-01-18 06:00:00 2.7 14 Sur 22 Sur 0 -- -- 85
2020-01-18 05:00:00 2.5 13 Sudeste 18 Sur 0 -- -- 86
2020-01-18 04:00:00 2 5 Este 12 Sur 0 -- -- 88
2020-01-18 03:00:00 1.1 4 Sur 8 Sur -- -- -- 90
2020-01-18 02:00:00 0.8 2 Este 8 Este 0 -- -- 88
2020-01-18 01:00:00 1.6 3 Sudeste 14 Este 0 -- -- 85
2020-01-18 00:00:00 1 0 Calma 10 Sudeste 0 -- -- 86
2020-01-17 23:00:00 1.7 3 Este 12 Sudeste 0 -- -- 85
2020-01-17 22:00:00 2.8 9 Sudeste 15 Sudeste 0 -- -- 83
2020-01-17 21:00:00 3.5 7 Sur 11 Sur 0 -- -- 81
2020-01-17 20:00:00 4.2 4 Sudoeste 9 Sudoeste 0 -- -- 77
2020-01-17 19:00:00 4.5 4 Sudoeste 11 Oeste 0 -- -- 77
2020-01-17 18:00:00 6 4 Sudoeste 12 Noroeste 0 -- -- 72
2020-01-17 17:00:00 6.9 7 Oeste 22 Noroeste 0 -- -- 67
2020-01-17 16:00:00 7.6 11 Oeste 26 Oeste 0 -- -- 64
2020-01-17 15:00:00 7.4 14 Oeste 30 Oeste 0 -- -- 62
2020-01-17 14:00:00 8.1 17 Oeste 34 Oeste 0 -- -- 65
2020-01-17 13:00:00 7.3 17 Oeste 33 Oeste 0 -- -- 71
2020-01-17 12:00:00 6.5 14 Oeste 31 Oeste 0 -- -- 80
2020-01-17 11:00:00 6.1 18 Sudoeste 35 Sudoeste 0 -- -- 85
2020-01-17 10:00:00 5.5 15 Sudoeste 32 Sudoeste 0 -- -- 93
2020-01-17 09:00:00 5.5 15 Sudoeste 30 Sudoeste 0 -- -- 92
2020-01-17 08:00:00 5.7 21 Sudoeste 37 Sudoeste 0 -- -- 91
2020-01-17 07:00:00 5.8 22 Sudoeste 35 Sudoeste 0 -- -- 91
2020-01-17 06:00:00 5.7 22 Sudoeste 35 Sur 0 -- -- 93
2020-01-17 05:00:00 5.9 20 Sudoeste 30 Sudoeste 0 -- -- 93
2020-01-17 04:00:00 5.4 17 Sudoeste 25 Sudoeste 0 -- -- 93
2020-01-17 03:00:00 5.6 20 Sudoeste 31 Sudoeste 0 -- -- 92
2020-01-17 02:00:00 5.6 17 Sur 30 Sur 0.4 -- -- 90
2020-01-17 01:00:00 6.3 17 Sudoeste 32 Sur 0 -- -- 81
2020-01-17 00:00:00 6.3 19 Sur 39 Sur 0 -- -- 80
2020-01-16 23:00:00 6.1 24 Sur 35 Sudoeste 0.2 -- -- 81
2020-01-16 22:00:00 6.8 27 Sudoeste 48 Sudoeste 0.4 -- -- 77
2020-01-16 21:00:00 7.8 17 Sur 43 Sur 0 -- -- 70
2020-01-16 20:00:00 8.3 27 Sudoeste 42 Sur 0 -- -- 68
2020-01-16 19:00:00 8.7 23 Sur 33 Sur 0 -- -- 67
2020-01-16 18:00:00 9.8 16 Sur 29 Sudoeste 0 -- -- 73
2020-01-16 17:00:00 11.3 18 Sudoeste 37 Sudoeste 0 -- -- 70
2020-01-16 16:00:00 11.7 24 Sudoeste 40 Sudoeste 0 -- -- 69
2020-01-16 15:00:00 11.6 27 Sudoeste 41 Sur 0 -- -- 70
2020-01-16 14:00:00 11.3 26 Sudoeste 41 Sudoeste 0 -- -- 75
2020-01-16 13:00:00 10.1 28 Sudoeste 39 Sudoeste 0 -- -- 77
2020-01-16 12:00:00 8.4 23 Sur 31 Sur 0 -- -- 82
2020-01-16 11:00:00 7.4 18 Sur 27 Sur 0 -- -- 83
2020-01-16 10:00:00 6.6 19 Sur 28 Sur 0 -- -- 85
2020-01-16 09:00:00 6.8 15 Sur 28 Sur 0 -- -- 84
2020-01-16 08:00:00 6.4 18 Sur 24 Sur 0 -- -- 86
2020-01-16 07:00:00 6 14 Sur 21 Sur 0 -- -- 87
2020-01-16 06:00:00 6.1 12 Sur 19 Sur 0 -- -- 87
2020-01-16 05:00:00 6.1 13 Sur 22 Sur 0 -- -- 87
2020-01-16 04:00:00 6.8 15 Sur 27 Sur 0 -- -- 87
2020-01-16 03:00:00 6.8 14 Sur 26 Sur 0 -- -- 89
2020-01-16 02:00:00 6.8 18 Sur 23 Sur 0 -- -- 90
2020-01-16 01:00:00 6.6 17 Sur 23 Sur 0 -- -- 93
2020-01-16 00:00:00 6.5 16 Sur 25 Sur 0 -- -- 94
2020-01-15 23:00:00 6.2 17 Sur 24 Sur 0 -- -- 94
2020-01-15 22:00:00 6.4 15 Sur 21 Sur 0 -- -- 94
2020-01-15 21:00:00 5.9 14 Sur 22 Sur 0 -- -- 93
2020-01-15 20:00:00 6.7 14 Sur 19 Sur 0 -- -- 91
2020-01-15 19:00:00 7.3 11 Sur 22 Sur 0 -- -- 89
2020-01-15 18:00:00 8 14 Sur 22 Sudoeste 0 -- -- 86
2020-01-15 17:00:00 8.3 15 Sudoeste 36 Sudoeste 0 -- -- 85
2020-01-15 16:00:00 8.5 20 Sudoeste 41 Sudoeste 0 -- -- 82
2020-01-15 15:00:00 8 24 Sur 43 Sur 0 -- -- 83
2020-01-15 14:00:00 7.4 26 Sudoeste 39 Sudoeste 0 -- -- 86
2020-01-15 13:00:00 6.6 21 Sur 33 Sur 0 -- -- 88
2020-01-15 12:00:00 5.7 24 Sur 35 Sur 0.4 -- -- 86
2020-01-15 11:00:00 6.1 24 Sur 39 Sur 0 -- -- 75
2020-01-15 10:00:00 5.4 22 Sur 33 Sur 0 -- -- 77
2020-01-15 09:00:00 4.7 19 Sur 31 Sudeste 0 -- -- 81
2020-01-15 08:00:00 4.4 21 Sur 32 Sur 0 -- -- 82
2020-01-15 07:00:00 4.3 19 Sur 30 Sur 0 -- -- 85
2020-01-15 06:00:00 3.6 23 Sur 35 Sudeste 0 -- -- 87
2020-01-15 05:00:00 4 17 Sur 37 Sur 0 -- -- 87
2020-01-15 04:00:00 4.4 21 Sur 37 Sur 0 -- -- 86
2020-01-15 03:00:00 4.3 19 Sur 37 Sur 0 -- -- 87
2020-01-15 02:00:00 4.3 22 Sur 37 Sur 0 -- -- 85
2020-01-15 01:00:00 4.5 26 Sur 35 Sur 0 -- -- 83
2020-01-15 00:00:00 4.7 17 Sur 27 Sur 0 -- -- 83
2020-01-14 23:00:00 4.8 20 Sur 30 Sur 0 -- -- 84
2020-01-14 22:00:00 4.9 19 Sur 28 Sur 0 -- -- 85
2020-01-14 21:00:00 4.3 13 Sur 27 Sur 0 -- -- 84
2020-01-14 20:00:00 4.7 18 Sur 27 Sur 0 -- -- 80
2020-01-14 19:00:00 5.7 17 Sur 25 Sur 0 -- -- 77
2020-01-14 18:00:00 6.6 15 Sur 31 Sudoeste 0 -- -- 75
2020-01-14 17:00:00 7.3 19 Sur 38 Sudoeste 0 -- -- 71
2020-01-14 16:00:00 7.5 23 Sudoeste 37 Sudoeste 0 -- -- 70
2020-01-14 15:00:00 7.3 25 Sudoeste 36 Sur 0 -- -- 70
2020-01-14 14:00:00 7.1 23 Sur 33 Sur 0 -- -- 72
2020-01-14 13:00:00 5.2 18 Sur 36 Sur 0 -- -- 80
2020-01-14 12:00:00 3.9 22 Sur 34 Sur 0 -- -- 84
2020-01-14 11:00:00 3 19 Sur 30 Sur 0 -- -- 85
2020-01-14 10:00:00 1.8 20 Sur 33 Sur 0 -- -- 89
2020-01-14 09:00:00 1.8 14 Sur 26 Sur 0 -- -- 89
2020-01-14 08:00:00 1.6 19 Sur 34 Sur 0 -- -- 90
2020-01-14 07:00:00 1.3 21 Sur 29 Sur 0 -- -- 89
2020-01-14 06:00:00 1.5 19 Sur 27 Sur 0 -- -- 89
2020-01-14 05:00:00 1.6 14 Sur 22 Sur 0 -- -- 91
2020-01-14 04:00:00 1.1 17 Sur 24 Sur 0 -- -- 91
2020-01-14 03:00:00 0.9 14 Sur 25 Sur 0 -- -- 90
2020-01-14 02:00:00 1 13 Sur 26 Sur 0 -- -- 88
2020-01-14 01:00:00 0.7 17 Sur 21 Sur 0 -- -- 86
2020-01-14 00:00:00 -0.1 15 Sur 18 Sur 0 -- -- 91
2020-01-13 23:00:00 -1 3 Norte 11 Sudeste 0 -- -- 92
2020-01-13 22:00:00 -0.8 4 Sudoeste 8 Oeste 0 -- -- 91
2020-01-13 21:00:00 0.8 3 Sur 15 Sudeste 0 -- -- 88
2020-01-13 20:00:00 1.6 10 Sudeste 17 Sur 0 -- -- 87
2020-01-13 19:00:00 1.8 9 Sur 14 Sudoeste 0 -- -- 87
2020-01-13 18:00:00 3.6 10 Sudoeste 23 Sur 0 -- -- 79
2020-01-13 17:00:00 5.2 14 Sudoeste 24 Sudoeste 0 -- -- 76
2020-01-13 16:00:00 4.9 15 Sudoeste 25 Sudoeste 0 -- -- 76
2020-01-13 15:00:00 4.7 15 Sudoeste 29 Sur 0 -- -- 70
2020-01-13 14:00:00 4.2 18 Sur 29 Sur 0 -- -- 84
2020-01-13 13:00:00 1.7 6 Sudoeste 9 Sudoeste 0 -- -- 99
2020-01-13 12:00:00 -0.9 3 Sudoeste 9 Noroeste 0 -- -- 99
2020-01-13 11:00:00 -2.8 3 Sudoeste 8 Noroeste 0 -- -- 99
2020-01-13 10:00:00 -3.7 5 Noroeste 11 Noroeste 0 -- -- 99
2020-01-13 09:00:00 -4.2 0 Calma 5 Sudeste 0 -- -- 99
2020-01-13 08:00:00 -4.2 4 Sudeste 6 Sudeste 0 -- -- 99
2020-01-13 07:00:00 -4.2 0 Calma 4 Noroeste 0 -- -- 99
2020-01-13 06:00:00 -3.9 0 Calma 3 Sur 0 -- -- 99
2020-01-13 05:00:00 -3.3 3 Noroeste 5 Noroeste 0 -- -- 99
2020-01-13 04:00:00 -3 2 Sudeste 5 Noroeste 0 -- -- 99
2020-01-13 03:00:00 -2.9 3 Norte 6 Sudeste 0 -- -- 98
2020-01-13 02:00:00 -2.2 4 Sudeste 6 Sur 0 -- -- 98
2020-01-13 01:00:00 -1.5 2 Sudeste 5 Sur 0 -- -- 99
2020-01-13 00:00:00 -1 0 Calma 6 Este 0 -- -- 99
2020-01-12 23:00:00 -0.6 2 Este 9 Sur 0 -- -- 98
2020-01-12 22:00:00 -0.1 4 Sudeste 9 Sudeste 0 -- -- 98
2020-01-12 21:00:00 0.1 5 Sur 9 Sur 0 -- -- 98
2020-01-12 20:00:00 0.4 2 Norte 6 Noroeste 0 -- -- 98
2020-01-12 19:00:00 0.7 3 Noroeste 7 Noroeste 0 -- -- 98
2020-01-12 18:00:00 0.8 3 Noroeste 10 Noroeste 0 -- -- 97
2020-01-12 17:00:00 0.8 6 Norte 12 Norte 0 -- -- 97
2020-01-12 16:00:00 0.8 3 Nordeste 10 Nordeste 0 -- -- 97
2020-01-12 15:00:00 0.8 3 Noroeste 10 Noroeste 0 -- -- 98
2020-01-12 14:00:00 0.7 4 Norte 12 Norte 0 -- -- 99
2020-01-12 13:00:00 -0.5 4 Norte 8 Norte 0 -- -- 99
2020-01-12 12:00:00 -1.3 4 Norte 10 Norte 0 -- -- 99
2020-01-12 11:00:00 -1.6 3 Norte 7 Norte 0 -- -- 99
2020-01-12 10:00:00 -1.8 2 Norte 4 Nordeste 0 -- -- 98
2020-01-12 09:00:00 -1.9 0 Calma 5 Sudeste 0 -- -- 98
2020-01-12 08:00:00 -1.9 2 Sudeste 4 Sudeste 0 -- -- 98
2020-01-12 07:00:00 -2.2 0 Calma 4 Sur 0 -- -- 98
2020-01-12 06:00:00 -2.6 0 Calma 4 Noroeste 0 -- -- 98
2020-01-12 05:00:00 -2.8 2 Oeste 8 Sur 0 -- -- 98
2020-01-12 04:00:00 -3 5 Sur 10 Sudeste 0 -- -- 97
2020-01-12 03:00:00 -4.3 0 Calma 4 Noroeste 0 -- -- 96
2020-01-12 02:00:00 -4.2 0 Calma 4 Sur 0 -- -- 95
2020-01-12 01:00:00 -3.9 2 Sudoeste 4 Sudoeste 0 -- -- 95
2020-01-12 00:00:00 -3.6 0 Calma 4 Este 0 -- -- 94
2020-01-11 23:00:00 -2.5 0 Calma 6 Sudeste 0 -- -- 94
2020-01-11 22:00:00 -1.7 3 Sudeste 10 Sudeste 0 -- -- 94
2020-01-11 21:00:00 -1.3 5 Sudeste 8 Sur 0 -- -- 93
2020-01-11 20:00:00 -0.3 4 Sur 7 Sudeste 0 -- -- 91
2020-01-11 19:00:00 0.9 5 Sur 9 Sur 0 -- -- 89
2020-01-11 18:00:00 3.3 7 Sur 11 Sudoeste 0 -- -- 83
2020-01-11 17:00:00 5 8 Sur 12 Sur 0 -- -- 82
2020-01-11 16:00:00 4.6 6 Sudoeste 12 Sudoeste 0 -- -- 83
2020-01-11 15:00:00 3.4 7 Oeste 16 Sudoeste 0 -- -- 85
2020-01-11 14:00:00 2.9 9 Sudoeste 15 Sudoeste 0 -- -- 82
2020-01-11 13:00:00 3.2 9 Sudoeste 13 Sudoeste 0 -- -- 82
2020-01-11 12:00:00 3 3 Sur 6 Sur 0 -- -- 84
2020-01-11 11:00:00 -0.3 2 Oeste 5 Oeste 0 -- -- 95
2020-01-11 10:00:00 -2.3 2 Sudoeste 8 Sur 0 -- -- 97
2020-01-11 09:00:00 -3.6 0 Calma 8 Sudeste 0 -- -- 94
2020-01-11 08:00:00 -2.9 3 Sudeste 5 Sudeste 0 -- -- 94
2020-01-11 07:00:00 -2.5 3 Norte 4 Norte 0 -- -- 91
2020-01-11 06:00:00 -0.6 0 Calma 11 Este 0 -- -- 88
2020-01-11 05:00:00 -0.1 6 Nordeste 13 Nordeste 0 -- -- 91
2020-01-11 04:00:00 0.1 2 Oeste 22 Nordeste 0 -- -- 89
2020-01-11 03:00:00 0.4 8 Nordeste 20 Norte 0 -- -- 93
2020-01-11 02:00:00 0.2 6 Norte 13 Noroeste 0 -- -- 91
2020-01-11 01:00:00 1 5 Sudoeste 22 Nordeste 0 -- -- 88
2020-01-11 00:00:00 2 14 Nordeste 33 Nordeste 0 -- -- 89
2020-01-10 23:00:00 1.2 15 Nordeste 21 Nordeste 0 -- -- 92
2020-01-10 22:00:00 1.4 7 Nordeste 13 Norte 0 -- -- 92
2020-01-10 21:00:00 2.5 7 Nordeste 15 Norte 0 -- -- 93
2020-01-10 20:00:00 3.5 7 Norte 15 Norte 0 -- -- 93
2020-01-10 19:00:00 3.8 8 Norte 17 Norte 0 -- -- 90
2020-01-10 18:00:00 4.5 12 Norte 22 Norte 0.2 -- -- 89
2020-01-10 17:00:00 5.5 11 Norte 35 Norte 0 -- -- 81
2020-01-10 16:00:00 6.1 19 Norte 29 Norte 0 -- -- 75
2020-01-10 15:00:00 6 16 Norte 31 Norte 0 -- -- 77
2020-01-10 14:00:00 6.1 21 Norte 30 Norte 0 -- -- 73
2020-01-10 13:00:00 5.2 17 Norte 33 Norte 0 -- -- 78
2020-01-10 12:00:00 4.4 14 Norte 32 Norte 0 -- -- 81
2020-01-10 11:00:00 3.8 20 Norte 33 Norte 0 -- -- 82
2020-01-10 10:00:00 1.8 10 Norte 15 Norte 0 -- -- 90
2020-01-10 09:00:00 0.8 5 Nordeste 14 Norte 0 -- -- 91
2020-01-10 08:00:00 1.4 5 Nordeste 10 Nordeste 0 -- -- 91
2020-01-10 07:00:00 1.2 8 Nordeste 14 Nordeste 0 -- -- 94
2020-01-10 06:00:00 0.3 6 Nordeste 12 Nordeste 0 -- -- 96
2020-01-10 05:00:00 0.4 2 Oeste 5 Oeste 0 -- -- 93
2020-01-10 04:00:00 1 0 Calma 4 Sudeste 0 -- -- 92
2020-01-10 03:00:00 2 2 Noroeste 5 Oeste 0 -- -- 89
2020-01-10 02:00:00 2.3 2 Oeste 9 Sudoeste 0 -- -- 88
2020-01-10 01:00:00 2.2 5 Sudoeste 14 Oeste 0 -- -- 87
2020-01-10 00:00:00 3.3 6 Norte 19 Oeste 0 -- -- 84
2020-01-09 23:00:00 3.9 5 Oeste 14 Oeste 0 -- -- 88
2020-01-09 22:00:00 6 7 Oeste 21 Sudoeste 0 -- -- 87
2020-01-09 21:00:00 7.3 9 Oeste 22 Oeste 0 -- -- 89
2020-01-09 20:00:00 8.1 11 Sudoeste 30 Sudoeste 0 -- -- 92
2020-01-09 19:00:00 7.9 15 Sudoeste 22 Sur 0 -- -- 91
2020-01-09 18:00:00 7.7 4 Sudoeste 15 Sudoeste 0 -- -- 89
2020-01-09 17:00:00 8 11 Sudoeste 29 Sudoeste 0 -- -- 88
2020-01-09 16:00:00 7.5 18 Sur 31 Sudoeste 0 -- -- 90
2020-01-09 15:00:00 6.5 20 Sudoeste 34 Sur 0 -- -- 91
2020-01-09 14:00:00 6.5 17 Sur 27 Sudoeste 0 -- -- 84
2020-01-09 13:00:00 6.2 18 Sur 26 Sur 0 -- -- 85
2020-01-09 12:00:00 5.4 17 Sur 24 Sur 0 -- -- 87
2020-01-09 11:00:00 5 15 Sur 23 Sur 0 -- -- 88
2020-01-09 10:00:00 3.4 15 Sur 21 Sur 0 -- -- 93
2020-01-09 09:00:00 1.7 4 Sur 14 Sudeste 0 -- -- 95
2020-01-09 08:00:00 1.2 7 Sudeste 13 Sudeste 0 -- -- 97
2020-01-09 07:00:00 1 4 Sudeste 7 Sudeste 0 -- -- 97
2020-01-09 06:00:00 0.5 0 Calma 5 Sur 0 -- -- 96
2020-01-09 05:00:00 0.6 4 Oeste 9 Oeste 0 -- -- 95
2020-01-09 04:00:00 1.9 5 Sudeste 11 Sudeste 0 -- -- 97
2020-01-09 03:00:00 2 5 Sur 9 Sudeste 0 -- -- 97
2020-01-09 02:00:00 0.7 0 Calma 2 Este 0 -- -- 95
2020-01-09 01:00:00 1.3 0 Calma 0 Calma 0 -- -- 95
2020-01-09 00:00:00 1.7 0 Calma 0 Calma 0 -- -- 95
2020-01-08 23:00:00 2.2 0 Calma 0 Calma 0 -- -- 92
2020-01-08 22:00:00 3.6 0 Calma 0 Calma 0 -- -- 93
2020-01-08 21:00:00 4.2 0 Calma 0 Calma 0 -- -- 90
2020-01-08 20:00:00 5.7 0 Calma 5 Sudeste 0 -- -- 87
2020-01-08 19:00:00 7.7 0 Calma 8 Sudeste 0 -- -- 83
2020-01-08 18:00:00 9.2 6 Sudeste 10 Sur 0 -- -- 80
2020-01-08 17:00:00 10.9 6 Sudoeste 10 Sudoeste 0 -- -- 76
2020-01-08 16:00:00 11.1 4 Sudoeste 8 Sudoeste 0 -- -- 77
2020-01-08 15:00:00 9.7 3 Sudoeste 11 Sur 0 -- -- 79
2020-01-08 14:00:00 7 4 Sudoeste 12 Sudoeste 0 -- -- 83
2020-01-08 13:00:00 4.7 4 Oeste 8 Oeste 0 -- -- 86
2020-01-08 12:00:00 2.9 4 Sudoeste 8 Sur 0 -- -- 90
2020-01-08 11:00:00 0.2 3 Oeste 5 Oeste 0 -- -- 97
2020-01-08 10:00:00 -1.7 0 Calma 6 Sudeste 0 -- -- 98
2020-01-08 09:00:00 -3.5 4 Nordeste 5 Norte 0 -- -- 97
2020-01-08 08:00:00 -3.7 0 Calma 2 Nordeste 0 -- -- 97
2020-01-08 07:00:00 -3.4 0 Calma 4 Norte 0 -- -- 97
2020-01-08 06:00:00 -3.1 3 Sudeste 3 Sudeste 0 -- -- 97
2020-01-08 05:00:00 -3.1 3 Oeste 4 Oeste 0 -- -- 97
2020-01-08 04:00:00 -3 2 Nordeste 4 Norte 0 -- -- 97
2020-01-08 03:00:00 -3 0 Calma 3 Norte 0 -- -- 97
2020-01-08 02:00:00 -2.9 0 Calma 0 Calma 0 -- -- 97
2020-01-08 01:00:00 -2.7 0 Calma 3 Oeste 0 -- -- 97
2020-01-08 00:00:00 -2.7 0 Calma 2 Sudoeste 0 -- -- 97
2020-01-07 23:00:00 -2.3 0 Calma 4 Sur 0 -- -- 96
2020-01-07 22:00:00 -1.8 0 Calma 3 Noroeste 0 -- -- 96
2020-01-07 21:00:00 -1.6 2 Noroeste 3 Noroeste 0 -- -- 95
2020-01-07 20:00:00 -0.9 0 Calma 4 Oeste 0 -- -- 94
2020-01-07 19:00:00 -0.1 3 Noroeste 7 Noroeste 0 -- -- 93
2020-01-07 18:00:00 3 4 Oeste 9 Oeste 0 -- -- 85
2020-01-07 17:00:00 5.7 3 Noroeste 6 Oeste 0 -- -- 80
2020-01-07 16:00:00 5.6 2 Oeste 6 Oeste 0 -- -- 79
2020-01-07 15:00:00 4.1 4 Oeste 8 Oeste 0 -- -- 88
2020-01-07 14:00:00 2.6 4 Oeste 12 Oeste 0 -- -- 90
2020-01-07 13:00:00 2.5 2 Sudoeste 7 Sudoeste 0 -- -- 92
2020-01-07 12:00:00 0.4 4 Noroeste 7 Noroeste 0 -- -- 97
2020-01-07 11:00:00 -1.6 0 Calma 6 Nordeste 0 -- -- 100
2020-01-07 10:00:00 -4 4 Sur 6 Sur 0 -- -- 98
2020-01-07 09:00:00 -5 0 Calma 4 Sudoeste 0 -- -- 97
2020-01-07 08:00:00 -4.7 3 Sudoeste 5 Sur 0 -- -- 98
2020-01-07 07:00:00 -4.5 2 Norte 5 Norte 0 -- -- 98
2020-01-07 06:00:00 -4.2 3 Nordeste 6 Norte 0 -- -- 98
2020-01-07 05:00:00 -4 4 Norte 8 Norte 0 -- -- 98
2020-01-07 04:00:00 -3.8 3 Norte 4 Norte 0 -- -- 98
2020-01-07 03:00:00 -3.3 0 Calma 5 Sudoeste 0 -- -- 98
2020-01-07 02:00:00 -2.7 4 Sur 6 Sudoeste 0 -- -- 98
2020-01-07 01:00:00 -3.1 4 Sudeste 5 Sur 0 -- -- 98
2020-01-07 00:00:00 -2.5 0 Calma 5 Sudeste 0 -- -- 98
2020-01-06 23:00:00 -2.2 2 Sur 9 Nordeste 0 -- -- 98
2020-01-06 22:00:00 -1.2 3 Nordeste 7 Norte 0 -- -- 98
2020-01-06 21:00:00 -1 2 Norte 5 Este 0 -- -- 98
2020-01-06 20:00:00 -0.4 2 Este 11 Este 0 -- -- 97
2020-01-06 19:00:00 0.2 6 Norte 13 Norte 0 -- -- 97
2020-01-06 18:00:00 1.1 5 Noroeste 13 Norte 0 -- -- 96
2020-01-06 17:00:00 1.8 3 Norte 13 Noroeste 0 -- -- 95
2020-01-06 16:00:00 3.1 6 Oeste 12 Oeste 0 -- -- 92
2020-01-06 15:00:00 3.9 4 Oeste 13 Oeste 0 -- -- 90
2020-01-06 14:00:00 5.1 6 Sudoeste 14 Sur 0 -- -- 90
2020-01-06 13:00:00 1.5 10 Sur 14 Sudeste 0 -- -- 100
2020-01-06 12:00:00 -2.4 3 Sur 8 Oeste 0 -- -- 99
2020-01-06 11:00:00 -3.3 4 Noroeste 8 Norte 0 -- -- 98
2020-01-06 10:00:00 -3.8 2 Noroeste 5 Sudeste 0 -- -- 98